Terminal Aerodrome Forecast
Issued by NWS Denver/Boulder, CO

Home | Current Version | Previous Version | Text Only | Print | Product List | Glossary On
Versions: 1 2 3 4 5 6 7 8 9 10 11 12 13 14 15 16 17 18 19 20 21 22 23 24 25 26 27 28 29 30 31 32 33 34 35 36 37 38 39 40 41 42 43 44 45 46 47 48 49 50
000
FTUS45 KBOU 161204 AAA
TAFDEN
TAF AMD
KDEN 161204Z 1612/1718 20008KT P6SM FEW140 SCT200
     FM161500 23005KT P6SM SCT140 BKN200
     FM161700 VRB04KT P6SM SCT080 BKN130
     FM161900 02005KT P6SM SCT050 BKN070
     FM170000 15006KT P6SM SCT060 BKN080
     FM170500 20008KT P6SM FEW080 BKN140
     FM171300 28005KT P6SM FEW080 BKN120=

USA.gov is the U.S. government's official web portal to all federal, state and local government web resources and services.